BON330 FKKD-FAOR

Flight info

Callsign BON330
Flight time N/A
Altitude 37000
Route DLA DCT ETNOM UA604 BZ DCT KSA UG652 VSA UM731 EPMAG/N0475F390 UM731 RUDAS UQ25 ITROL UQ44 AVAGO AVAGO1D
Aircraft B772/H-SDE1E2E3FGHIJ2J3J4J5M1RWXYZ/LB1D1

Departure

Time 2026-04-22 13:22
Airport Douala International Airport (FKKD)

Arrival

Time N/A
Airport O.R. Tambo International Airport (FAOR)
Time Latitude Longitude Altitude Speed Heading
2026-04-22 12:55 4.01139 9.71770 38 ft 0 kts 302°
2026-04-22 13:13 4.01137 9.71773 38 ft 3 kts 302°
2026-04-22 13:14 4.01123 9.71795 37 ft 4 kts 302°
2026-04-22 13:14 4.01109 9.71818 38 ft 4 kts 302°
2026-04-22 13:14 4.01094 9.71841 38 ft 4 kts 302°
2026-04-22 13:14 4.01091 9.71846 38 ft 0 kts 302°
2026-04-22 13:17 4.01099 9.71830 38 ft 8 kts 287°
2026-04-22 13:17 4.01070 9.71789 38 ft 8 kts 204°
2026-04-22 13:17 4.01020 9.71766 38 ft 8 kts 206°
2026-04-22 13:17 4.00969 9.71741 38 ft 8 kts 206°
2026-04-22 13:18 4.00919 9.71714 38 ft 9 kts 209°
2026-04-22 13:18 4.00865 9.71685 39 ft 9 kts 206°
2026-04-22 13:18 4.00811 9.71658 40 ft 9 kts 209°
2026-04-22 13:18 4.00799 9.71587 39 ft 16 kts 289°
2026-04-22 13:19 4.00847 9.71488 38 ft 16 kts 296°
2026-04-22 13:19 4.00895 9.71388 38 ft 16 kts 296°
2026-04-22 13:19 4.00946 9.71289 39 ft 16 kts 298°
2026-04-22 13:19 4.00997 9.71190 38 ft 16 kts 296°
2026-04-22 13:20 4.01046 9.71091 39 ft 16 kts 296°
2026-04-22 13:20 4.01096 9.70992 40 ft 16 kts 297°
2026-04-22 13:20 4.01148 9.70894 40 ft 16 kts 308°
2026-04-22 13:20 4.01208 9.70843 40 ft 6 kts 283°
2026-04-22 13:21 4.01187 9.70819 41 ft 4 kts 186°
2026-04-22 13:21 4.01174 9.70834 40 ft 3 kts 113°
2026-04-22 13:21 4.01173 9.70835 40 ft 0 kts 115°
2026-04-22 13:21 4.01080 9.71025 40 ft 73 kts 117°
2026-04-22 13:22 4.00720 9.71739 39 ft 154 kts 117°
2026-04-22 13:22 4.00194 9.72829 512 ft 176 kts 115°
2026-04-22 13:22 3.99627 9.73933 1455 ft 180 kts 116°
2026-04-22 13:22 3.99041 9.75053 2186 ft 183 kts 119°
2026-04-22 13:23 3.98443 9.76189 2834 ft 186 kts 119°
2026-04-22 13:23 3.97550 9.77131 3354 ft 192 kts 148°
2026-04-22 13:23 3.96351 9.77885 3633 ft 217 kts 148°
2026-04-22 13:23 3.95002 9.78760 3819 ft 244 kts 147°
2026-04-22 13:24 3.93509 9.79731 4083 ft 266 kts 147°
2026-04-22 13:24 3.91929 9.80757 4660 ft 275 kts 147°
2026-04-22 13:24 3.90309 9.81806 5351 ft 279 kts 147°
2026-04-22 13:24 3.88670 9.82868 6089 ft 282 kts 147°
2026-04-22 13:25 3.87015 9.83940 6819 ft 285 kts 147°
2026-04-22 13:25 3.85343 9.85023 7491 ft 288 kts 147°
2026-04-22 13:25 3.83650 9.86117 8154 ft 291 kts 147°
2026-04-22 13:25 3.81940 9.87225 8783 ft 295 kts 147°
2026-04-22 13:26 3.80207 9.88347 9382 ft 298 kts 147°
2026-04-22 13:26 3.78453 9.89482 9992 ft 301 kts 146°
2026-04-22 13:26 3.76693 9.90620 10653 ft 301 kts 145°
2026-04-22 13:26 3.74952 9.91746 11325 ft 304 kts 144°
2026-04-22 13:27 3.73169 9.92900 12062 ft 306 kts 143°
2026-04-22 13:27 3.71383 9.94057 12871 ft 306 kts 142°
2026-04-22 13:27 3.69587 9.95221 13622 ft 308 kts 143°
2026-04-22 13:27 3.67759 9.96406 14367 ft 310 kts 143°
2026-04-22 13:28 3.65940 9.97584 15074 ft 313 kts 144°
2026-04-22 13:28 3.64062 9.98802 15357 ft 333 kts 144°
2026-04-22 13:28 3.62083 10.00087 15513 ft 353 kts 144°
2026-04-22 13:28 3.59929 10.01485 15667 ft 374 kts 144°
2026-04-22 13:29 3.57688 10.02935 15845 ft 392 kts 145°
2026-04-22 13:29 3.55395 10.04417 16200 ft 403 kts 145°
2026-04-22 13:29 3.53020 10.05950 16683 ft 408 kts 145°
2026-04-22 13:29 3.50627 10.07494 17249 ft 411 kts 145°
2026-04-22 13:30 3.48223 10.09046 17836 ft 412 kts 145°
2026-04-22 13:30 3.45812 10.10604 18393 ft 414 kts 146°
2026-04-22 13:30 3.43383 10.12174 18872 ft 418 kts 146°
2026-04-22 13:30 3.40930 10.13759 19274 ft 423 kts 146°
2026-04-22 13:31 3.38447 10.15366 19683 ft 426 kts 146°
2026-04-22 13:31 3.35950 10.16979 20093 ft 430 kts 146°
2026-04-22 13:31 3.33427 10.18610 20486 ft 433 kts 146°
2026-04-22 13:31 3.30887 10.20252 20837 ft 437 kts 146°
2026-04-22 13:32 3.28321 10.21911 21189 ft 441 kts 146°
2026-04-22 13:32 3.25736 10.23582 21554 ft 444 kts 146°
2026-04-22 13:32 3.23138 10.25262 21909 ft 447 kts 146°
2026-04-22 13:32 3.20513 10.26957 22265 ft 449 kts 146°
2026-04-22 13:33 3.17885 10.28655 22628 ft 452 kts 146°
2026-04-22 13:33 3.15235 10.30367 22948 ft 455 kts 146°
2026-04-22 13:33 3.12567 10.32092 23241 ft 458 kts 146°
2026-04-22 13:33 3.09882 10.33827 23538 ft 461 kts 146°
2026-04-22 13:34 3.07177 10.35576 23859 ft 464 kts 146°
2026-04-22 13:34 3.04458 10.37332 24150 ft 467 kts 146°
2026-04-22 13:34 3.01725 10.39098 24434 ft 469 kts 146°
2026-04-22 13:34 2.98975 10.40874 24698 ft 472 kts 146°
2026-04-22 13:35 2.96204 10.42664 24939 ft 476 kts 146°
2026-04-22 13:35 2.93420 10.44462 25178 ft 479 kts 146°
2026-04-22 13:35 2.90609 10.46277 25432 ft 482 kts 146°
2026-04-22 13:35 2.87786 10.48100 25666 ft 485 kts 146°
2026-04-22 13:36 2.84935 10.49941 25897 ft 488 kts 146°
2026-04-22 13:36 2.82082 10.51784 26152 ft 490 kts 146°
2026-04-22 13:36 2.79209 10.53640 26398 ft 493 kts 146°
2026-04-22 13:36 2.76320 10.55506 26626 ft 495 kts 146°
2026-04-22 13:37 2.73417 10.57380 26848 ft 499 kts 146°
2026-04-22 13:37 2.70492 10.59268 27080 ft 501 kts 146°
2026-04-22 13:37 2.67557 10.61163 27297 ft 504 kts 146°
2026-04-22 13:37 2.64615 10.63061 27494 ft 506 kts 146°
2026-04-22 13:38 2.61645 10.64980 27696 ft 509 kts 146°
2026-04-22 13:38 2.55674 10.68835 28091 ft 513 kts 146°
2026-04-22 13:38 2.52666 10.70776 28294 ft 515 kts 146°
2026-04-22 13:39 2.49686 10.72700 28458 ft 518 kts 146°
2026-04-22 13:39 2.46654 10.74662 28651 ft 520 kts 146°
2026-04-22 13:39 2.43624 10.76643 28811 ft 522 kts 145°
2026-04-22 13:39 2.40584 10.78641 28985 ft 524 kts 145°
2026-04-22 13:40 2.37536 10.80647 29140 ft 526 kts 145°
2026-04-22 13:40 2.34475 10.82660 29300 ft 528 kts 145°
2026-04-22 13:40 2.31400 10.84679 29452 ft 529 kts 145°
2026-04-22 13:40 2.28317 10.86700 29622 ft 531 kts 146°
2026-04-22 13:41 2.25224 10.88728 29780 ft 532 kts 146°
2026-04-22 13:41 2.22121 10.90761 29886 ft 534 kts 146°
2026-04-22 13:41 2.19011 10.92801 30057 ft 535 kts 145°
2026-04-22 13:41 2.15903 10.94839 30280 ft 534 kts 146°
2026-04-22 13:42 2.12796 10.96876 30584 ft 533 kts 146°
2026-04-22 13:42 2.09713 10.98895 30996 ft 529 kts 146°
2026-04-22 13:42 2.06647 11.00903 31420 ft 525 kts 146°
2026-04-22 13:42 2.03596 11.02900 31828 ft 522 kts 146°
2026-04-22 13:43 2.00579 11.04876 32266 ft 518 kts 146°
2026-04-22 13:43 1.97571 11.06849 32681 ft 514 kts 146°
2026-04-22 13:43 1.94611 11.08790 33206 ft 508 kts 146°
2026-04-22 13:43 1.91657 11.10725 33631 ft 504 kts 146°
2026-04-22 13:44 1.88733 11.12641 33997 ft 502 kts 146°
2026-04-22 13:44 1.85818 11.14551 34303 ft 500 kts 146°
2026-04-22 13:44 1.82909 11.16456 34588 ft 500 kts 146°
2026-04-22 13:44 1.79999 11.18362 34832 ft 499 kts 146°
2026-04-22 13:45 1.77095 11.20264 35100 ft 499 kts 146°
2026-04-22 13:45 1.74194 11.22165 35379 ft 498 kts 146°
2026-04-22 13:45 1.71305 11.24058 35647 ft 497 kts 146°
2026-04-22 13:45 1.68415 11.25951 35858 ft 496 kts 146°
2026-04-22 13:46 1.65530 11.27841 36109 ft 496 kts 146°
2026-04-22 13:46 1.62645 11.29729 36343 ft 495 kts 146°
2026-04-22 13:46 1.59770 11.31611 36536 ft 495 kts 146°
2026-04-22 13:46 1.56885 11.33501 36807 ft 493 kts 146°
2026-04-22 13:47 1.54031 11.35371 37261 ft 487 kts 146°
2026-04-22 13:47 1.51222 11.37212 37657 ft 482 kts 146°
2026-04-22 13:47 1.48419 11.39048 37858 ft 482 kts 146°
2026-04-22 13:47 1.45603 11.40892 37993 ft 483 kts 146°
2026-04-22 13:48 1.42790 11.42734 38119 ft 485 kts 146°
2026-04-22 13:48 1.39970 11.44581 38277 ft 485 kts 146°
2026-04-22 13:48 1.38104 11.45802 38396 ft 485 kts 146°
2026-04-22 13:48 1.35278 11.47653 38553 ft 484 kts 146°
2026-04-22 13:49 1.32462 11.49499 38697 ft 485 kts 146°
2026-04-22 13:49 1.28717 11.51951 38794 ft 487 kts 146°
2026-04-22 13:49 1.23029 11.55674 38821 ft 490 kts 146°
2026-04-22 13:50 1.18254 11.58798 38823 ft 489 kts 146°
2026-04-22 13:50 1.12571 11.62516 38824 ft 488 kts 146°
2026-04-22 13:51 1.06890 11.66236 38824 ft 488 kts 146°
2026-04-22 13:51 1.01216 11.69951 38826 ft 487 kts 146°
2026-04-22 13:52 0.95548 11.73661 38833 ft 487 kts 146°
2026-04-22 13:52 0.89880 11.77371 38832 ft 487 kts 146°
2026-04-22 13:53 0.84213 11.81081 38833 ft 487 kts 146°
2026-04-22 13:53 0.78569 11.84776 38832 ft 488 kts 146°
2026-04-22 13:54 0.72877 11.88501 38837 ft 490 kts 146°
2026-04-22 13:54 0.67178 11.92231 38831 ft 491 kts 146°
2026-04-22 13:55 0.61454 11.95977 38834 ft 492 kts 146°
2026-04-22 13:55 0.55722 11.99731 38836 ft 493 kts 146°
2026-04-22 13:56 0.49980 12.03491 38830 ft 494 kts 146°
2026-04-22 13:56 0.44222 12.07258 38836 ft 495 kts 146°
2026-04-22 13:57 0.38462 12.11024 38844 ft 495 kts 146°
2026-04-22 13:57 0.32702 12.14791 38852 ft 495 kts 146°
2026-04-22 13:58 0.26942 12.18559 38850 ft 495 kts 146°
2026-04-22 13:58 0.21178 12.22330 38852 ft 495 kts 146°
2026-04-22 13:59 0.15413 12.26103 38851 ft 496 kts 146°
2026-04-22 13:59 0.09643 12.29882 38848 ft 495 kts 146°
2026-04-22 14:00 0.03912 12.33630 38852 ft 495 kts 146°
2026-04-22 14:00 -0.01850 12.37399 38849 ft 495 kts 146°
2026-04-22 14:01 -0.07603 12.41162 38854 ft 495 kts 146°
2026-04-22 14:01 -0.13360 12.44931 38853 ft 494 kts 146°
2026-04-22 14:02 -0.19109 12.48695 38853 ft 494 kts 146°
2026-04-22 14:02 -0.24852 12.52451 38852 ft 493 kts 146°
2026-04-22 14:03 -0.30590 12.56200 38848 ft 493 kts 146°
2026-04-22 14:03 -0.36332 12.59956 38854 ft 493 kts 146°
2026-04-22 14:04 -0.42056 12.63707 38849 ft 492 kts 146°
2026-04-22 14:04 -0.47775 12.67452 38858 ft 491 kts 146°
2026-04-22 14:05 -0.53478 12.71182 38850 ft 489 kts 146°
2026-04-22 14:06 -0.62005 12.76761 38851 ft 487 kts 146°
2026-04-22 14:06 -0.67671 12.80469 38851 ft 487 kts 146°
2026-04-22 14:07 -0.73328 12.84173 38851 ft 486 kts 146°
2026-04-22 14:07 -0.78981 12.87873 38852 ft 485 kts 146°
2026-04-22 14:08 -0.84631 12.91571 38851 ft 485 kts 146°
2026-04-22 14:08 -0.90271 12.95261 38854 ft 485 kts 146°
2026-04-22 14:09 -0.95868 12.98924 38851 ft 484 kts 146°
2026-04-22 14:09 -1.01533 13.02631 38852 ft 483 kts 146°
2026-04-22 14:10 -1.07154 13.06309 38852 ft 483 kts 146°
2026-04-22 14:10 -1.12770 13.09985 38852 ft 482 kts 146°
2026-04-22 14:11 -1.18383 13.13659 38854 ft 482 kts 146°
2026-04-22 14:11 -1.23981 13.17325 38850 ft 481 kts 146°
2026-04-22 14:12 -1.29541 13.20965 38855 ft 481 kts 146°
2026-04-22 14:12 -1.35166 13.24647 38851 ft 480 kts 146°
2026-04-22 14:13 -1.40707 13.28276 38857 ft 479 kts 146°
2026-04-22 14:13 -1.46288 13.31931 38862 ft 479 kts 146°
2026-04-22 14:14 -1.51856 13.35578 38858 ft 478 kts 146°
2026-04-22 14:14 -1.57413 13.39217 38864 ft 477 kts 146°
2026-04-22 14:15 -1.62970 13.42858 38844 ft 477 kts 146°
2026-04-22 14:15 -1.68490 13.46543 38829 ft 476 kts 145°
2026-04-22 14:16 -1.73898 13.50357 38832 ft 475 kts 144°
2026-04-22 14:16 -1.79282 13.54164 38834 ft 474 kts 144°
2026-04-22 14:17 -1.84670 13.57947 38832 ft 473 kts 144°
2026-04-22 14:17 -1.90059 13.61720 38833 ft 472 kts 144°
2026-04-22 14:18 -1.95428 13.65480 38826 ft 471 kts 144°
2026-04-22 14:18 -2.00791 13.69236 38822 ft 470 kts 144°
2026-04-22 14:19 -2.06145 13.72988 38824 ft 470 kts 144°
2026-04-22 14:19 -2.11454 13.76708 38823 ft 469 kts 144°
2026-04-22 14:20 -2.19460 13.82320 38822 ft 468 kts 144°
2026-04-22 14:20 -2.24796 13.86058 38825 ft 468 kts 145°
2026-04-22 14:21 -2.32854 13.91620 38828 ft 469 kts 145°
2026-04-22 14:22 -2.40926 13.97184 38820 ft 470 kts 145°
2026-04-22 14:23 -2.49009 14.02769 38816 ft 471 kts 145°
2026-04-22 14:23 -2.54398 14.06492 38813 ft 471 kts 145°
2026-04-22 14:24 -2.59785 14.10215 38816 ft 471 kts 145°
2026-04-22 14:24 -2.65174 14.13939 38816 ft 470 kts 145°
2026-04-22 14:25 -2.70549 14.17653 38817 ft 470 kts 145°
2026-04-22 14:25 -2.75917 14.21364 38810 ft 469 kts 145°
2026-04-22 14:26 -2.81283 14.25074 38811 ft 469 kts 145°
2026-04-22 14:26 -2.86651 14.28786 38808 ft 468 kts 144°
2026-04-22 14:27 -2.92008 14.32490 38801 ft 468 kts 144°
2026-04-22 14:27 -2.97362 14.36195 38806 ft 467 kts 144°
2026-04-22 14:28 -3.02710 14.39893 38807 ft 467 kts 144°
2026-04-22 14:28 -3.08016 14.43562 38805 ft 467 kts 144°
2026-04-22 14:29 -3.13362 14.47260 38806 ft 467 kts 144°
2026-04-22 14:29 -3.18707 14.50960 38802 ft 467 kts 144°
2026-04-22 14:30 -3.24047 14.54654 38808 ft 467 kts 144°
2026-04-22 14:30 -3.29393 14.58351 38802 ft 467 kts 144°
2026-04-22 14:31 -3.34729 14.62045 38806 ft 467 kts 144°
2026-04-22 14:31 -3.40072 14.65747 38802 ft 466 kts 144°
2026-04-22 14:32 -3.45405 14.69440 38805 ft 466 kts 144°
2026-04-22 14:32 -3.50744 14.73136 38806 ft 466 kts 144°
2026-04-22 14:33 -3.56077 14.76829 38808 ft 466 kts 144°
2026-04-22 14:33 -3.61414 14.80526 38808 ft 467 kts 144°
2026-04-22 14:34 -3.66747 14.84219 38809 ft 467 kts 144°
2026-04-22 14:34 -3.72085 14.87918 38804 ft 467 kts 144°
2026-04-22 14:35 -3.77431 14.91624 38805 ft 467 kts 144°
2026-04-22 14:35 -3.82767 14.95324 38801 ft 467 kts 144°
2026-04-22 14:36 -3.88114 14.99030 38806 ft 468 kts 144°
2026-04-22 14:36 -3.93471 15.02742 38808 ft 468 kts 144°
2026-04-22 14:37 -3.98789 15.06431 38806 ft 468 kts 144°
2026-04-22 14:37 -4.04151 15.10150 38804 ft 468 kts 144°
2026-04-22 14:38 -4.09505 15.13864 38807 ft 468 kts 144°
2026-04-22 14:38 -4.14865 15.17583 38805 ft 469 kts 144°
2026-04-22 14:39 -4.20230 15.21306 38807 ft 469 kts 144°
2026-04-22 14:39 -4.24621 15.24555 38810 ft 469 kts 139°
2026-04-22 14:40 -4.31301 15.31630 38807 ft 468 kts 130°
2026-04-22 14:40 -4.35573 15.36556 38808 ft 468 kts 130°
2026-04-22 14:41 -4.39902 15.41437 38806 ft 469 kts 133°
2026-04-22 14:41 -4.44683 15.45871 38800 ft 469 kts 138°
2026-04-22 14:42 -4.49624 15.50162 38809 ft 470 kts 138°
2026-04-22 14:42 -4.54555 15.54456 38804 ft 470 kts 138°
2026-04-22 14:43 -4.59475 15.58776 38806 ft 470 kts 138°
2026-04-22 14:43 -4.64389 15.63105 38805 ft 470 kts 138°
2026-04-22 14:44 -4.69299 15.67436 38803 ft 470 kts 138°
2026-04-22 14:44 -4.74216 15.71770 38806 ft 470 kts 138°
2026-04-22 14:45 -4.79130 15.76101 38802 ft 470 kts 138°
2026-04-22 14:45 -4.84039 15.80431 38808 ft 470 kts 137°
2026-04-22 14:46 -4.88951 15.84763 38804 ft 470 kts 138°
2026-04-22 14:46 -4.93862 15.89091 38806 ft 470 kts 137°
2026-04-22 14:47 -4.98766 15.93418 38808 ft 470 kts 137°
2026-04-22 14:47 -5.03670 15.97747 38807 ft 469 kts 137°
2026-04-22 14:48 -5.08572 16.02073 38807 ft 469 kts 137°
2026-04-22 14:48 -5.13468 16.06396 38802 ft 469 kts 138°
2026-04-22 14:49 -5.18369 16.10722 38806 ft 469 kts 138°
2026-04-22 14:49 -5.23262 16.15044 38802 ft 469 kts 138°
2026-04-22 14:50 -5.28128 16.19343 38806 ft 469 kts 138°
2026-04-22 14:50 -5.33027 16.23672 38806 ft 469 kts 138°
2026-04-22 14:51 -5.37922 16.27999 38805 ft 470 kts 138°
2026-04-22 14:51 -5.42810 16.32358 38817 ft 469 kts 137°
2026-04-22 14:52 -5.47663 16.36734 38812 ft 469 kts 137°
2026-04-22 14:52 -5.52521 16.41117 38813 ft 469 kts 137°
2026-04-22 14:53 -5.57373 16.45488 38813 ft 469 kts 137°
2026-04-22 14:53 -5.62232 16.49864 38812 ft 469 kts 137°
2026-04-22 14:54 -5.67082 16.54233 38816 ft 469 kts 137°
2026-04-22 14:54 -5.71934 16.58604 38813 ft 468 kts 137°
2026-04-22 14:55 -5.76781 16.62970 38812 ft 468 kts 137°
2026-04-22 14:55 -5.81626 16.67335 38817 ft 468 kts 137°
2026-04-22 14:56 -5.86450 16.71688 38817 ft 469 kts 137°
2026-04-22 14:56 -5.91308 16.76070 38814 ft 470 kts 137°
2026-04-22 14:57 -5.96171 16.80457 38818 ft 470 kts 137°
2026-04-22 14:57 -6.00977 16.84793 38819 ft 470 kts 137°
2026-04-22 14:58 -6.05848 16.89189 38824 ft 470 kts 137°
2026-04-22 14:58 -6.10714 16.93582 38824 ft 471 kts 137°
2026-04-22 14:59 -6.15592 16.97986 38825 ft 471 kts 137°
2026-04-22 14:59 -6.20463 17.02386 38820 ft 471 kts 137°
2026-04-22 15:00 -6.25345 17.06797 38825 ft 472 kts 137°
2026-04-22 15:00 -6.30222 17.11205 38826 ft 471 kts 137°
2026-04-22 15:01 -6.35097 17.15612 38837 ft 471 kts 137°
2026-04-22 15:01 -6.39976 17.20023 38834 ft 472 kts 137°
2026-04-22 15:02 -6.44853 17.24434 38836 ft 472 kts 137°
2026-04-22 15:02 -6.49739 17.28856 38831 ft 473 kts 137°
2026-04-22 15:03 -6.54624 17.33291 38834 ft 473 kts 136°
2026-04-22 15:03 -6.59282 17.37957 38838 ft 473 kts 134°
2026-04-22 15:04 -6.63866 17.42690 38848 ft 472 kts 134°
2026-04-22 15:04 -6.68423 17.47389 38846 ft 472 kts 134°
2026-04-22 15:05 -6.73030 17.52113 38839 ft 472 kts 134°
2026-04-22 15:05 -6.77629 17.56820 38847 ft 472 kts 134°
2026-04-22 15:06 -6.82225 17.61523 38854 ft 472 kts 134°
2026-04-22 15:06 -6.86830 17.66236 38852 ft 472 kts 134°
2026-04-22 15:07 -6.91434 17.70951 38851 ft 473 kts 134°
2026-04-22 15:07 -6.96045 17.75676 38853 ft 473 kts 134°
2026-04-22 15:08 -7.00648 17.80394 38865 ft 473 kts 134°
2026-04-22 15:08 -7.05258 17.85122 38864 ft 473 kts 134°
2026-04-22 15:09 -7.09868 17.89851 38862 ft 473 kts 134°
2026-04-22 15:09 -7.14482 17.94583 38868 ft 473 kts 134°
2026-04-22 15:10 -7.19092 17.99314 38869 ft 474 kts 134°
2026-04-22 15:10 -7.23709 18.04053 38874 ft 474 kts 134°
2026-04-22 15:11 -7.28330 18.08796 38873 ft 474 kts 134°
2026-04-22 15:11 -7.32941 18.13533 38880 ft 474 kts 134°
2026-04-22 15:12 -7.37555 18.18275 38886 ft 474 kts 134°
2026-04-22 15:12 -7.42171 18.23019 38891 ft 474 kts 134°
2026-04-22 15:13 -7.46794 18.27773 38889 ft 475 kts 134°